Location: Igri�s
(42.2144°N, 0.4320°W)
Time: 12:54:12
(UTC+00:00)

Cosmos 968 Rocket - Pass Details

Date: 13 August 2020
Orbit: 740 x 772 km, 74.0° (Epoch: 24 September)

Event Time Altitude Azimuth Distance (km) Brightness Sun altitude
Exits shadow 22:58:00 41° 19° (NNE) 1,074 4.5 -31.3°
Drops below altitude 10° 23:01:17 10° 20° (NNE) 2,266 6.5 -31.5°
Sets 23:03:40 0° 20° (NNE) 3,197 7.4 -31.7°
